Regional Weather Roundup
Issued by NWS

Home | Current Version | Previous Version | Text Only | Print | Product List | Glossary Off
Versions: 1 2 3 4 5 6 7 8 9 10 11 12 13 14 15 16 17 18 19 20 21 22 23 24 25 26 27 28 29 30 31 32 33 34 35 36 37 38 39 40 41 42 43 44 45 46 47 48 49 50

000
ASUS45 KCYS 242010
RWRWY

WYOMING REGIONAL WEATHER ROUNDUP
NATIONAL WEATHER SERVICE CHEYENNE WY
200 PM MDT FRI MAR 24 2017

NOTE:  "FAIR" INDICATES FEW OR NO CLOUDS BELOW 12,000 FEET
WITH NO SIGNIFICANT WEATHER AND/OR OBSTRUCTIONS TO VISIBILITY.

WYZ001-242100-
YELLOWSTONE NATIONAL PARK

CITY           SKY/WX    TMP DP  RH WIND       PRES   REMARKS
LK YELLOWSTONE   N/A     41  17  38 VRB5      30.14F
W YELLOWSTONE  NOT AVBL

$$
WYZ002>013-054>058-071-098>099-242100-
NORTHERN WYOMING

CITY           SKY/WX    TMP DP  RH WIND       PRES   REMARKS
JACKSON        SUNNY     45  21  39 SW15G21   30.15F
CODY           FAIR      57  19  22 VRB7G16   30.04F
GREYBULL       FAIR      58  31  35 S17G23    30.05F
WORLAND        FAIR      58  31  35 S13G21    30.07F
SHERIDAN       FAIR      60  31  33 SE14G23   30.03F
BUFFALO        FAIR      58  31  35 SE14G20   30.05F
GILLETTE       FAIR      55  30  38 SW7       30.09F
HULETT         FAIR      54  28  37 CALM      30.11F
NEWCASTLE      FAIR      55  19  24 NW13G21   30.10F

$$
WYZ014>020-022>026-101>103-242100-
CENTRAL WYOMING

CITY           SKY/WX    TMP DP  RH WIND       PRES   REMARKS
BIG PINEY      FAIR      40  28  62 SE8       30.22F WCI  34
PINEDALE       MOCLDY    37  32  81 S6        30.21F WCI  33
DUBOIS         FAIR      45  25  45 N12       30.11F
LANDER         FAIR      53  29  39 VRB3      30.08F
RIVERTON       FAIR      52  29  41 S10       30.11F
CASPER         FAIR      55  25  31 W7        30.12F
DOUGLAS        PTSUNNY   52  28  39 NW9       30.13F

$$
WYZ021-027>030-104>119-242100-
SOUTHERN WYOMING

CITY           SKY/WX    TMP DP  RH WIND       PRES   REMARKS
EVANSTON       FAIR      42  28  57 VRB5      30.20F
KEMMERER         N/A     41  27  56 W5        30.21S
FORT BRIDGER   FAIR      49  23  36 SE3       30.22S
ROCK SPRINGS   FAIR      47  27  45 VRB3      30.20F
DIXON            N/A     52  24  34 W7        30.20F
RAWLINS        FAIR      51  18  27 MISG      30.16F
SARATOGA       MOCLDY    50  23  34 NW6       30.19F
LARAMIE        PTSUNNY   44  23  43 NW10G21   30.15F
CHEYENNE       FAIR      48  21  34 N15G30    30.13R
TORRINGTON     FAIR      57  21  24 N17G25    30.09F
PINE BLUFFS    CLOUDY    46  32  57 N16G23    30.12S

$$



USA.gov is the U.S. government's official web portal to all federal, state and local government web resources and services.